SUOMI-100 (43804 NORAD) Tracking and Keplerian Element Data

This shows tracking and keplerian element data for the satellite.

Feedback or suggestion? Click here.




ElementValue
Catalog43804
NameSUOMI-100
Epoch Orbit30131
Epoch Day160.11888555
Epoch Year2024
RAAN218.7917
Inclination97.5271
Eccentricity0.0015014
Argument of Perigee336.2097
Mean Anonmoly23.8435
Mean Motion15.06493439
Decay Rate0.0001327
L11 43804U 18099AY 24160.11888555 .00013270 00000+0 89934-3 0 9998
L22 43804 97.5271 218.7917 0015014 336.2097 23.8435 15.06493439301315



Live tracking and technical data element details for SUOMI-100 (NORAD 43804). SUOMI-100 can be tracked NOW for your location showing map with azimuth and elevation plus other details from your city location.







IsCatalogInMostPopularTable: catalog: 43804, numindb: 1180
Update: records affected: 1



GetName: 43804 SUOMI-100

Hit Count: updated at: Tue, 17 Sep 2024 11:18:00 GMT